Location: Caltech
(34.1382°N, 118.1253°W)
Time: 13:31:52
(UTC-07:00)

Gurwin Techsat 1B - Visible Passes

Search period start: 20 July 2017 00:00
Search period end: 30 July 2017 00:00
Orbit: 813 x 813 km, 98.6° (Epoch: 19 July)

Date Brightness Start Highest point End Pass type
(mag) Time Alt. Az. Time Alt. Az. Time Alt. Az.
20 Jul 9.3 02:26:35 10° NNE 02:31:06 50° ENE 02:31:06 50° ENE visible
20 Jul 10.3 04:07:59 10° NNW 04:11:14 17° WNW 04:12:18 16° W visible
21 Jul 10.1 02:04:11 10° NE 02:07:57 30° ENE 02:07:57 30° ENE visible
21 Jul 9.8 03:44:16 10° NNW 03:48:40 27° WNW 03:49:09 27° WNW visible
22 Jul 10.7 01:42:15 10° NE 01:44:48 18° ENE 01:44:48 18° ENE visible
22 Jul 9.1 03:21:00 10° N 03:26:00 44° WNW 03:26:00 44° WNW visible
23 Jul 8.7 02:57:59 10° N 03:02:51 69° NNW 03:02:51 69° NNW visible
24 Jul 9.1 02:35:13 10° NNE 02:39:42 57° NE 02:39:42 57° NE visible
24 Jul 10.5 04:17:18 10° NW 04:19:51 14° WNW 04:20:54 13° WNW visible
25 Jul 9.9 02:12:42 10° NNE 02:16:33 35° ENE 02:16:33 35° ENE visible
25 Jul 10.0 03:53:16 10° NNW 03:57:18 22° WNW 03:57:45 22° WNW visible
26 Jul 10.6 01:50:34 10° NE 01:53:24 21° ENE 01:53:24 21° ENE visible
26 Jul 9.4 03:29:52 10° N 03:34:36 36° WNW 03:34:36 36° WNW visible
27 Jul 11.1 01:29:14 10° ENE 01:30:15 12° ENE 01:30:15 12° ENE visible
27 Jul 8.9 03:06:46 10° N 03:11:27 57° NW 03:11:27 57° NW visible
28 Jul 9.0 02:43:54 10° NNE 02:48:17 61° NNE 02:48:17 61° NNE visible
28 Jul 10.7 04:27:03 10° NW 04:28:26 11° WNW 04:29:30 10° WNW visible
29 Jul 9.7 02:21:17 10° NNE 02:25:08 39° ENE 02:25:08 39° ENE visible
29 Jul 10.2 04:02:21 10° NNW 04:05:56 19° WNW 04:06:20 18° WNW visible
